Weather History for LIMC - October, 2013

Change the Weather History Date:

Saturday, October 12, 2013

  Actual Average Record
Temperature  
Mean Temperature 50 °F -  
Max Temperature 55 °F 60 °F 82 °F (2011)
Min Temperature 44 °F 40 °F 37 °F (2010)
Degree Days  
Heating Degree Days 16    
Moisture  
Dew Point 44 °F    
Average Humidity 80    
Maximum Humidity 93    
Minimum Humidity 63    
Precipitation  
Precipitation 0.00 in 0.14 in - ()
Sea Level Pressure  
Sea Level Pressure 30.04 in    
Wind  
Wind Speed 6 mph ()    
Max Wind Speed 10 mph    
Max Gust Speed 23 mph    
Visibility 6.2 miles    
Events Rain , Thunderstorm    
Averages and records for this station are not official NWS values.
T = Trace of Precipitation, MM = Missing Value Source: Averaged Metar Reports

Daily Weather History Graph

Daily Weather History Graph

Search for Another Location

Airport or City:

Trip Planner

Search our weather history database for the weather conditions in past years. The results will help you decide how hot, cold, wet, or windy it might be!

Date:

Astronomy

Oct. 12, 2013 Rise Set
Actual Time 7:37 AM CEST 6:44 PM CEST
Civil Twilight 7:07 AM CEST 7:14 PM CEST
Nautical Twilight 6:33 AM CEST 7:48 PM CEST
Astronomical Twilight 5:58 AM CEST 8:23 PM CEST
Moon 2:59 PM CEST (10/12) 12:03 AM CEST (10/12)
Length of Visible Light 12h 06m
Length of Day
11h 07m
First Quarter, 55% of the Moon is Illuminated
Oct 12
First Quarter
Oct 19
Full
Oct 27
Last Quarter
Nov 3
New
Nov 10
First Quarter

Hourly Weather History & Observations

Time (CEST) Temp. Windchill Dew Point Humidity Pressure Visibility Wind Dir Wind Speed Gust Speed Precip Events Conditions
12:20 AM 48.2 °F - 44.6 °F 87% 29.95 in 6.2 mi North 5.8 mph - N/A Rain Rain
12:50 AM 50.0 °F - 44.6 °F 82% 29.95 in 6.2 mi East 3.5 mph - N/A   Mostly Cloudy
1:20 AM 51.8 °F - 44.6 °F 76% 29.95 in 6.2 mi ESE 8.1 mph - N/A   Mostly Cloudy
1:50 AM 51.8 °F - 44.6 °F 76% 29.95 in 6.2 mi ESE 9.2 mph - N/A   Mostly Cloudy
2:20 AM 51.8 °F - 44.6 °F 76% 29.95 in 6.2 mi ESE 6.9 mph - N/A Rain Light Rain
2:50 AM 51.8 °F - 44.6 °F 76% 29.95 in 6.2 mi ESE 8.1 mph - N/A Rain Rain
3:20 AM 50.0 °F - 44.6 °F 82% 29.92 in 6.2 mi ESE 10.4 mph - N/A Rain , Thunderstorm Light Thunderstorms and Rain
3:50 AM 50.0 °F - 44.6 °F 82% 29.95 in 6.2 mi SE 9.2 mph 23.0 mph N/A Rain , Thunderstorm Light Thunderstorms and Rain
4:20 AM 48.2 °F - 44.6 °F 87% 29.95 in 6.2 mi Variable 4.6 mph - N/A Rain , Thunderstorm Light Thunderstorms and Rain
4:50 AM 48.2 °F - 46.4 °F 93% 29.95 in 6.2 mi East 6.9 mph - N/A Rain Light Rain
5:20 AM 48.2 °F - 46.4 °F 93% 29.95 in 6.2 mi SE 9.2 mph - N/A Rain , Thunderstorm Light Thunderstorms and Rain
5:50 AM 48.2 °F - 46.4 °F 93% 29.95 in 6.2 mi ESE 6.9 mph - N/A   Mostly Cloudy
6:20 AM 48.2 °F - 46.4 °F 93% 29.98 in 6.2 mi ESE 5.8 mph - N/A   Mostly Cloudy
6:50 AM 48.2 °F - 46.4 °F 93% 29.98 in 6.2 mi SE 8.1 mph - N/A   Mostly Cloudy
7:50 AM 48.2 °F - 46.4 °F 93% 30.01 in 6.2 mi SSE 5.8 mph - N/A   Mostly Cloudy
8:20 AM 48.2 °F - 46.4 °F 93% 30.01 in 6.2 mi ESE 3.5 mph - N/A   Mostly Cloudy
8:50 AM 48.2 °F - 44.6 °F 87% 30.01 in 6.2 mi North 5.8 mph - N/A   Mostly Cloudy
9:20 AM 44.6 °F 40.2 °F 42.8 °F 93% 30.04 in 6.2 mi North 8.1 mph - N/A   Overcast
9:50 AM 46.4 °F 42.4 °F 42.8 °F 87% 30.04 in 6.2 mi NNW 8.1 mph - N/A   Overcast
10:20 AM 46.4 °F 42.9 °F 42.8 °F 87% 30.06 in 6.2 mi North 6.9 mph - N/A   Light Drizzle
10:50 AM 46.4 °F 42.9 °F 42.8 °F 87% 30.06 in 6.2 mi North 6.9 mph - N/A   Light Drizzle
11:20 AM 48.2 °F - 42.8 °F 82% 30.06 in 6.2 mi North 6.9 mph - N/A   Mostly Cloudy
11:50 AM 48.2 °F - 42.8 °F 82% 30.06 in 6.2 mi North 8.1 mph - N/A   Mostly Cloudy
12:20 PM 50.0 °F - 44.6 °F 82% 30.06 in 6.2 mi North 8.1 mph - N/A   Mostly Cloudy
12:50 PM 50.0 °F - 44.6 °F 82% 30.09 in 6.2 mi North 6.9 mph - N/A   Mostly Cloudy
1:20 PM 51.8 °F - 44.6 °F 76% 30.09 in 6.2 mi NNW 5.8 mph - N/A   Mostly Cloudy
1:50 PM 53.6 °F - 42.8 °F 67% 30.09 in 6.2 mi North 8.1 mph - N/A   Scattered Clouds
2:20 PM 53.6 °F - 42.8 °F 67% 30.09 in 6.2 mi North 5.8 mph - N/A   Mostly Cloudy
2:50 PM 53.6 °F - 42.8 °F 67% 30.09 in 6.2 mi ENE 4.6 mph 16.1 mph N/A   Mostly Cloudy
3:20 PM 55.4 °F - 42.8 °F 63% 30.06 in 6.2 mi NNE 6.9 mph - N/A   Scattered Clouds
3:50 PM 55.4 °F - 42.8 °F 63% 30.06 in 6.2 mi NNE 4.6 mph - N/A   Partly Cloudy
4:20 PM 55.4 °F - 42.8 °F 63% 30.06 in 6.2 mi North 4.6 mph - N/A   Partly Cloudy
4:50 PM 55.4 °F - 42.8 °F 63% 30.09 in 6.2 mi Variable 2.3 mph - N/A   Scattered Clouds
5:20 PM 55.4 °F - 42.8 °F 63% 30.09 in - North 3.5 mph - N/A   Clear
5:50 PM 55.4 °F - 42.8 °F 63% 30.09 in 6.2 mi NNE 3.5 mph - N/A   Scattered Clouds
6:20 PM 53.6 °F - 42.8 °F 67% 30.09 in 6.2 mi NNE 3.5 mph - N/A   Mostly Cloudy
6:50 PM 53.6 °F - 44.6 °F 72% 30.09 in 6.2 mi NE 3.5 mph 18.4 mph N/A   Mostly Cloudy
7:20 PM 51.8 °F - 46.4 °F 82% 30.09 in 6.2 mi NNW 6.9 mph - N/A   Mostly Cloudy
7:50 PM 51.8 °F - 46.4 °F 82% 30.09 in 6.2 mi NNW 6.9 mph - N/A   Mostly Cloudy
8:20 PM 51.8 °F - 46.4 °F 82% 30.09 in 6.2 mi NNW 6.9 mph - N/A   Mostly Cloudy
8:50 PM 50.0 °F - 46.4 °F 87% 30.12 in 6.2 mi NNW 9.2 mph - N/A   Mostly Cloudy
9:20 PM 50.0 °F - 44.6 °F 82% 30.12 in 6.2 mi NW 3.5 mph - N/A   Mostly Cloudy
9:50 PM 50.0 °F - 44.6 °F 82% 30.12 in 6.2 mi NNW 3.5 mph - N/A   Mostly Cloudy
10:20 PM 50.0 °F - 44.6 °F 82% 30.12 in 6.2 mi North 8.1 mph - N/A   Mostly Cloudy
10:50 PM 50.0 °F - 46.4 °F 87% 30.12 in 6.2 mi North 5.8 mph - N/A   Mostly Cloudy
11:20 PM 50.0 °F - 44.6 °F 82% 30.12 in 6.2 mi North 8.1 mph - N/A   Mostly Cloudy
11:50 PM 50.0 °F - 44.6 °F 82% 30.12 in 6.2 mi North 8.1 mph - N/A   Mostly Cloudy